Lapse_Rate
5.2 5.4 5.3 5.1 5.1 5.0 4.9 4.8 5.4 6.0 6.0 5.6 5.5 5.7 5.8 5.9 5.9 6.0 6.2 6.3 6.4 6.5 6.5 6.6 6.5 6.4 6.4 6.2 6.2 6.2 6.4 6.6 6.6 6.6 6.6 6.7 6.8 6.1
5.6 5.4 5.3 5.1 5.1 5.0 5.3 5.7 5.6 5.7 5.9 6.0 6.0 6.0 6.1 6.2 6.3 6.4 6.6 6.8 7.0 7.0 7.0 7.0 6.8 6.5 6.2 5.9 5.8 5.8 6.0 6.0 6.1 6.1 6.2 6.2 6.6 6.5
5.3 5.4 5.1 5.1 5.4 5.6 5.6 5.7 5.8 6.0 6.3 6.4 6.3 6.5 6.7 6.5 6.5 6.7 6.8 6.9 6.9 6.9 6.8 6.6 6.4 6.2 5.9 5.8 5.6 5.6 5.7 5.9 6.0 6.1 6.1 6.1 6.3 6.7
5.3 5.4 5.5 5.7 5.8 5.7 5.8 5.9 6.3 6.4 6.4 6.4 6.7 6.9 6.7 6.7 6.8 6.9 7.0 6.9 6.8 6.8 6.6 6.3 6.1 6.0 5.8 5.6 5.6 5.7 6.1 6.4 6.6 6.7 6.6 6.3 6.3 6.4
5.2 5.6 5.8 5.7 5.8 5.8 6.1 6.5 6.6 6.3 6.3 6.5 6.9 6.9 6.9 7.0 7.1 7.1 7.0 6.8 6.7 6.4 6.0 5.9 6.1 5.9 5.8 5.7 5.9 6.0 6.3 6.4 6.6 6.7 6.6 6.4 6.5 6.6
5.7 5.8 5.9 5.9 5.9 6.4 6.6 6.7 6.5 6.3 6.5 6.8 7.0 6.9 7.1 7.2 7.2 7.1 7.1 6.7 6.6 6.2 5.8 6.3 5.9 5.8 5.7 5.9 6.1 6.3 6.4 6.4 6.4 6.5 6.5 6.2 6.2 6.2
5.7 5.9 5.9 6.1 6.6 6.7 6.8 6.6 6.4 6.4 6.7 7.0 7.0 7.2 7.4 7.4 7.4 7.1 6.8 6.7 6.6 6.0 6.3 6.3 5.5 5.7 5.5 5.8 6.0 6.2 6.2 6.1 5.9 5.7 5.7 5.8 5.9 6.0
6.0 6.0 6.3 6.7 6.7 6.8 6.8 6.6 6.5 6.6 6.9 7.1 7.2 7.4 7.7 7.6 7.4 7.0 6.7 6.4 6.6 6.1 6.5 6.7 5.4 5.8 5.4 5.6 5.9 6.1 6.0 5.9 5.6 5.5 5.4 5.3 5.4 5.6
6.1 6.4 6.8 6.8 6.8 6.8 6.7 6.5 6.5 6.8 7.1 7.1 7.4 7.6 7.9 7.7 7.5 7.3 6.9 6.6 6.3 5.9 6.2 7.1 5.7 6.0 5.7 5.6 5.9 5.9 5.8 5.7 5.6 5.5 5.4 5.2 5.2 5.1
6.4 6.8 6.9 6.9 6.9 6.8 6.6 6.5 6.5 6.9 7.1 7.1 7.4 7.7 7.8 7.8 7.7 7.7 7.4 7.1 6.6 6.0 5.6 7.0 6.0 6.3 6.2 5.8 5.8 5.8 5.7 5.5 5.5 5.5 5.5 5.2 5.1 5.1
6.9 7.1 7.1 7.1 6.7 6.6 6.5 6.4 6.5 6.8 7.1 7.1 7.4 7.7 7.9 7.8 7.8 7.8 7.5 7.3 7.1 6.6 5.6 6.4 6.1 6.4 6.4 5.8 5.4 5.7 5.7 5.7 6.1 6.1 5.8 5.9 5.5 5.3
7.3 7.4 7.3 7.1 6.7 6.6 6.5 6.4 6.6 6.8 7.1 7.1 7.5 7.7 7.8 7.8 7.7 7.6 7.5 7.6 7.1 7.1 5.9 6.6 6.4 6.1 6.7 6.4 5.6 5.8 6.3 6.4 6.6 6.7 6.7 6.7 6.6 6.1
7.5 7.4 7.2 6.9 6.7 6.4 6.5 6.6 6.6 7.0 7.0 7.2 7.5 7.6 7.7 7.7 7.7 7.6 7.4 7.4 7.1 6.9 6.3 6.6 6.7 6.5 6.2 6.1 6.1 6.2 6.6 7.0 7.3 7.7 7.6 7.5 7.4 7.3
7.4 7.2 7.0 6.7 6.3 6.5 6.7 6.8 6.8 7.0 7.1 7.2 7.4 7.6 7.7 7.7 7.7 7.6 7.5 7.5 7.0 7.0 6.7 6.4 6.7 6.4 6.4 6.4 6.3 6.9 7.2 7.8 8.1 8.1 8.0 7.7 7.7 7.9
7.0 6.9 6.8 6.6 6.6 6.7 7.0 7.1 7.1 7.1 7.2 7.4 7.5 7.6 7.6 7.6 7.6 7.7 7.6 7.7 7.2 6.8 6.8 6.8 6.6 6.6 6.4 6.4 6.7 7.0 8.0 8.2 8.0 8.0 8.1 8.0 8.1 8.1
6.5 6.5 6.6 6.7 6.8 7.0 7.2 7.3 7.2 7.2 7.3 7.5 7.5 7.5 7.5 7.5 7.5 7.7 7.8 7.9 7.8 7.0 6.3 6.8 6.8 6.6 6.8 6.6 6.9 7.3 7.8 8.2 8.0 7.9 8.0 7.9 8.1 8.4
6.1 6.6 6.7 6.7 6.7 7.0 7.2 7.5 7.4 7.3 7.5 7.5 7.6 7.6 7.5 7.6 7.5 7.7 7.8 7.9 7.8 7.5 7.0 6.5 6.7 6.8 6.8 7.0 7.1 7.4 7.6 7.9 8.0 7.8 7.8 7.7 7.8 8.1
6.1 6.7 6.7 6.7 6.6 6.8 7.1 7.4 7.3 7.4 7.5 7.6 7.7 7.7 7.6 7.6 7.6 7.7 7.8 7.9 7.9 7.5 7.1 6.9 6.9 6.7 6.8 7.0 7.2 7.4 7.4 7.6 7.6 7.6 7.4 7.6 7.6 7.6
6.4 6.8 7.3 7.1 6.8 6.9 7.2 7.4 7.4 7.4 7.5 7.9 7.9 7.7 7.7 7.7 7.6 7.7 7.8 8.0 7.9 7.5 7.0 7.0 7.0 6.9 6.8 7.0 7.2 7.4 7.3 7.3 7.4 7.5 7.3 7.5 7.7 7.7
6.5 7.0 7.1 7.3 7.0 7.0 7.2 7.4 7.4 7.5 7.7 8.0 8.0 7.8 7.8 7.8 7.7 7.7 7.8 8.0 8.0 7.6 7.1 7.0 7.0 6.9 6.9 7.0 7.2 7.4 7.3 7.3 7.2 7.3 7.6 7.5 7.7 7.7
6.6 6.8 7.1 7.4 7.1 7.0 7.1 7.5 7.4 7.7 7.9 7.9 8.0 8.0 7.9 7.9 7.7 7.7 7.8 8.0 8.1 7.7 7.3 7.1 7.0 6.9 6.8 7.0 7.2 7.3 7.3 7.3 7.2 7.1 7.3 7.5 7.5 7.7
6.7 6.8 6.8 7.2 7.0 7.0 7.1 7.5 7.5 7.8 8.0 8.1 8.0 8.0 8.0 7.9 7.7 7.7 7.8 8.0 8.1 7.8 7.5 7.3 7.1 6.9 6.9 7.0 7.2 7.3 7.3 7.3 7.3 7.2 7.2 7.2 7.4 7.3
6.7 6.7 6.7 6.9 7.1 7.2 7.2 7.5 7.6 7.9 8.1 8.0 8.1 7.9 7.9 7.8 7.7 7.7 7.8 7.9 8.1 7.9 7.6 7.5 7.2 7.1 7.0 6.9 7.0 7.2 7.2 7.2 7.2 7.2 7.2 7.1 7.2 7.1
Wind_Speed
5 5 4 4 3 3 3 3 2 4 5 3 2 3 2 10 12 16 15 18 20 20 21 22 22 21 24 25 25 26 27 29 28 27 27 28 30 30
3 5 4 3 4 3 3 3 4 4 4 3 3 2 4 9 11 15 17 18 19 20 19 20 22 24 24 24 26 27 29 29 28 27 28 27 30 31
4 5 6 4 3 3 3 2 3 3 4 2 2 2 3 5 11 16 15 15 15 18 20 22 23 25 27 28 28 28 28 29 27 26 26 25 31 32
6 5 6 3 5 4 3 5 4 3 3 5 2 2 5 6 8 9 13 14 15 18 22 24 26 24 23 22 23 26 28 25 25 24 25 26 29 31
6 6 6 5 5 3 4 4 3 2 2 3 3 2 3 2 5 7 9 12 15 20 23 22 21 21 22 24 25 25 27 28 27 27 25 24 27 29
6 6 6 6 6 6 4 5 4 3 2 3 3 4 3 3 4 5 8 6 8 17 18 17 19 22 23 23 23 23 23 25 26 26 26 24 23 26
6 6 6 8 11 8 4 5 4 3 3 3 4 3 5 4 6 6 8 8 9 9 7 9 14 16 18 19 19 20 19 20 23 26 27 27 24 25
6 6 5 8 8 11 12 10 8 4 4 2 3 5 6 5 4 5 6 8 8 4 6 11 11 9 14 16 20 22 22 21 22 26 27 27 24 24
6 5 5 4 7 5 7 8 9 10 8 4 5 5 4 4 5 7 8 9 9 8 8 11 7 10 14 18 22 22 21 19 19 19 21 22 24 25
7 7 6 6 6 6 5 5 6 5 6 6 6 6 7 9 7 7 8 10 8 7 8 9 8 9 11 20 23 19 16 15 17 21 24 24 23 24
6 6 7 7 11 14 6 7 6 6 9 12 13 13 14 14 13 4 6 7 8 8 8 5 5 10 8 9 13 12 13 14 17 21 23 23 22 18
5 7 13 11 13 13 8 7 6 7 4 4 4 9 12 11 13 7 5 6 7 6 1 4 9 5 6 2 3 10 10 14 18 19 22 21 18 12
6 6 7 15 16 16 16 8 9 6 5 5 5 5 6 6 7 8 8 6 7 8 11 7 7 8 5 6 3 4 8 9 12 15 19 20 20 17
8 6 7 14 18 18 13 16 16 7 4 4 3 5 5 5 5 7 10 12 12 12 17 14 6 8 8 10 8 3 5 8 8 8 8 18 23 20
8 11 15 16 18 15 19 17 12 5 5 4 5 6 3 5 6 4 8 11 12 14 12 12 7 8 8 8 9 7 6 5 7 6 9 9 8 6
8 10 10 9 11 10 8 10 8 6 6 6 4 4 2 2 2 2 2 5 5 5 12 11 12 8 7 7 7 7 7 4 6 8 9 9 6 3
5 6 5 5 6 6 6 7 6 5 5 4 3 3 3 2 2 1 2 3 3 5 5 6 12 12 8 8 5 5 7 5 6 8 7 6 7 7
5 6 6 6 7 7 8 7 7 8 7 5 4 4 4 4 3 2 2 2 4 5 6 6 6 7 4 2 3 4 6 6 7 7 6 4 7 9
6 7 6 6 7 8 7 7 7 7 7 6 5 5 5 3 3 3 3 2 4 5 6 6 6 4 5 5 3 3 6 7 7 6 4 4 4 6
6 8 9 7 7 7 7 7 7 5 5 5 5 4 5 4 3 4 4 2 3 4 5 6 5 5 4 3 3 3 9 5 5 4 4 3 3 5
6 6 6 6 7 7 7 6 7 6 5 4 5 5 5 4 4 4 4 4 3 3 5 6 6 12 7 4 2 2 2 9 11 5 4 3 3 3
5 5 5 7 7 6 7 7 6 7 5 5 5 5 5 5 4 4 3 3 3 3 3 5 7 6 4 2 3 1 1 2 8 13 20 11 2 3
10 8 4 2 4 6 7 6 7 6 7 7 6 6 6 6 5 4 4 4 3 2 2 4 5 4 3 3 4 2 1 2 2 4 6 18 18 16
Wind_Direction
220 225 221 246 235 229 207 191 234 295 286 251 235 195 271 330 324 317 312 310 306 304 299 295 294 293 293 289 288 289 289 287 286 288 284 286 286 287
225 230 236 240 241 209 202 203 209 234 269 215 231 233 284 299 300 308 305 305 302 298 294 296 295 291 290 290 288 287 286 284 285 285 285 286 286 282
232 225 242 224 225 207 197 189 200 189 233 261 230 245 266 265 288 306 303 295 291 297 295 294 291 291 289 286 285 283 285 280 280 281 282 288 287 284
227 220 235 211 225 214 201 217 216 200 203 266 237 242 236 253 271 292 300 302 292 294 293 293 294 291 288 290 288 282 279 282 284 284 282 283 289 282
218 212 223 210 224 212 213 222 217 223 215 231 277 251 272 272 301 296 291 293 292 297 296 295 294 293 293 292 289 288 282 277 278 281 279 283 290 282
218 212 223 212 218 216 214 216 211 218 220 239 267 278 273 287 295 303 308 303 298 296 292 287 291 297 296 296 294 289 285 275 277 281 279 278 283 292
220 221 219 225 226 208 189 216 197 209 223 246 270 276 289 300 303 307 297 301 301 280 282 297 300 301 293 295 291 289 289 287 285 282 282 281 281 286
216 224 225 229 235 232 222 212 196 194 214 216 254 275 284 281 282 286 293 309 319 279 310 303 300 290 289 287 286 291 290 293 292 284 278 278 278 278
215 214 221 223 223 225 223 204 207 220 222 204 249 253 264 260 281 289 291 289 291 302 297 296 306 292 294 292 291 290 290 291 298 310 303 281 276 273
212 211 210 220 216 200 201 212 221 228 240 247 223 242 244 261 254 276 287 291 287 288 280 286 303 293 298 294 294 290 281 290 306 304 308 294 278 272
222 213 213 219 224 219 201 220 226 238 248 260 246 249 263 281 294 299 299 306 305 307 291 266 296 307 296 287 292 293 265 297 304 311 311 300 283 269
234 226 230 221 223 219 205 207 224 237 227 244 257 264 270 274 289 279 285 290 298 309 252 322 308 311 313 263 288 300 299 295 299 305 309 311 289 275
245 231 223 232 231 220 211 201 215 210 225 228 249 260 270 272 271 266 270 267 279 275 282 297 303 304 278 293 279 288 293 292 295 299 302 295 303 274
241 239 234 223 231 231 214 214 222 219 208 228 243 261 260 263 264 263 279 278 267 263 279 280 276 292 302 299 292 298 293 296 288 292 297 296 289 275
238 240 243 244 239 228 222 212 217 210 207 222 240 251 234 240 262 273 286 294 294 289 290 283 278 288 290 292 296 301 315 307 297 296 302 294 285 275
253 256 248 241 231 227 216 217 217 212 210 222 226 239 256 238 235 251 271 302 302 300 310 302 294 296 299 289 294 303 307 301 308 309 309 305 319 296
235 254 238 224 221 221 219 215 213 208 210 208 209 223 239 232 248 249 263 297 283 307 313 314 317 309 285 263 295 325 326 314 312 321 322 329 1 13
214 239 234 230 231 230 223 217 216 215 220 209 209 214 230 221 242 260 248 259 294 302 308 312 322 334 331 319 281 329 338 324 318 327 331 331 5 8
238 239 233 235 237 233 226 218 215 213 208 203 202 207 213 214 209 246 256 271 297 301 300 308 317 327 323 315 291 339 340 330 331 328 345 349 341 3
244 258 257 241 238 237 227 218 219 209 199 200 191 196 195 192 206 231 244 244 280 295 302 319 317 314 291 278 319 286 333 330 331 330 340 321 308 337
251 247 244 244 251 241 232 223 218 211 199 184 196 191 192 182 213 227 240 233 241 279 307 315 307 298 281 243 244 267 324 359 24 14 344 337 351 8
240 238 244 259 250 234 233 228 220 213 196 195 199 189 184 184 203 211 208 224 246 265 280 298 310 321 321 308 302 272 342 338 8 37 37 40 355 28
359 354 338 300 263 250 241 227 218 216 205 194 192 190 176 191 201 201 209 214 233 271 293 314 326 337 332 338 358 11 10 1 14 20 35 29 54 71